Вернуться в каталог

SL-8 R/B

АктивенPO
NORAD 22889·ROCKET BODY·🇷🇺 Russia

Запущен Nov 2, 1993 с Plesetsk Cosmodrome

Loading…

Ближайшие Пролёты (ближайшие 24 часа)

TLE

СвежийSource: Space-Track

Эпоха: Sep 14, 2026, 14:14 UTC

1 22889U 93070B   26257.59312484  .00000077  00000-0  59963-4 0  9996
2 22889  82.9481 324.9061 0050945 121.8148 238.7985 13.78295724652391

Отслеживайте SL-8 R/B в реальном времени с AllMySat

Download on the App Store